User: anonymous   Login
Location: Catstown
(52.4386°N, 7.2633°W)
Time: 11:39:59
(UTC+00:00)
Language:

Meteor 2-9 Rocket - Orbit

View from above orbital plane
View from above orbital plane
View from above satellite
View from above satellite

Ground track
Ground track

The orbit data is extracted from the following two-line orbital elements,

1 13719U 82116B   20329.93337293 +.00000111 +00000-0 +50096-4 0  9991
2 13719 081.2558 209.1805 0071762 008.5839 001.8421 14.14661378958057
Epoch (UTC): 24 November 2020 22:24:03
Eccentricity: 0.0071762
inclination: 81.2558°
perigee height: 791 km
apogee height: 895 km
right ascension of ascending node: 209.1805°
argument of perigee: 8.5839°
revolutions per day: 14.14661378
mean anomaly at epoch: 1.8421°
orbit number at epoch: 95805

The dashed part of the orbit path shows where the satellite is in the earth's shadow,  

DLR